MM0ZIF Weather Reports


time (UTC)temp
F
wind
direction
speed
knots
gust
knots
rain 1hr
in
rain 24hr
in
rain mn
in
humidity
%
barometer
mb
20260507051506 44 148 2.6 7.8 0.00 0.12 0.00 89 1000.4
20260507051007 44 206 1.7 5.2 0.00 0.12 0.00 89 1000.3
20260507050506 44 146 1.7 7.0 0.00 0.12 0.00 89 1000.6
20260507045507 44 151 1.7 6.1 0.00 0.12 0.00 90 1000.7
20260507045007 44 142 2.6 6.1 0.00 0.12 0.00 90 1000.5
20260507044507 44 110 1.7 4.3 0.00 0.12 0.00 89 1000.5
20260507044006 44 170 2.6 7.0 0.00 0.12 0.00 89 1000.6
20260507043007 44 73 1.7 6.1 0.00 0.12 0.00 89 1000.6
20260507042506 44 144 3.5 10.4 0.00 0.12 0.00 88 1000.6
20260507042007 44 187 2.6 10.4 0.00 0.12 0.00 88 1000.8
20260507041006 44 158 5.2 10.4 0.00 0.12 0.00 88 1000.8
20260507040506 44 105 3.5 8.7 0.00 0.12 0.00 88 1000.9
20260507040007 44 104 3.5 8.7 0.00 0.12 0.00 89 1000.9
20260507035007 44 209 3.5 7.8 0.00 0.12 0.00 90 1000.9
20260507034507 44 149 1.7 7.8 0.00 0.12 0.00 90 1001.0
20260507034006 44 173 2.6 7.8 0.00 0.12 0.00 90 1001.0
20260507033506 44 211 4.3 7.8 0.00 0.12 0.00 90 1001.0
20260507033006 44 160 1.7 7.8 0.00 0.12 0.00 90 1000.9
20260507032507 44 152 3.5 6.1 0.00 0.12 0.00 90 1001.0
20260507032007 44 3 2.6 6.1 0.00 0.12 0.00 91 1001.2
20260507031506 43 226 4.3 5.2 0.00 0.12 0.00 91 1001.3
20260507031006 43 131 1.7 6.1 0.00 0.12 0.00 92 1001.2
20260507030506 43 153 0.9 5.2 0.00 0.12 0.00 92 1001.4
20260507030007 43 126 0.9 5.2 0.00 0.12 0.00 92 1001.3
20260507025506 43 143 1.7 6.1 0.00 0.12 0.00 92 1001.4
20260507025007 43 96 0.9 4.3 0.00 0.12 0.00 93 1001.3
20260507024506 43 123 1.7 7.0 0.00 0.12 0.00 93 1001.5
20260507024007 43 165 1.7 4.3 0.00 0.12 0.00 93 1001.4
20260507023505 43 120 0.9 6.1 0.00 0.12 0.00 93 1001.3
20260507023006 43 86 0.9 6.1 0.00 0.12 0.00 93 1001.4
20260507022006 43 165 2.6 4.3 0.00 0.12 0.00 93 1001.5
20260507021506 43 127 1.7 4.3 0.00 0.12 0.00 94 1001.5
20260507021006 42 190 0.9 4.3 0.00 0.12 0.00 94 1001.5
20260507020506 42 83 0.0 4.3 0.00 0.12 0.00 94 1001.7
20260507020006 42 124 0.9 2.6 0.00 0.12 0.00 94 1001.8
20260507015506 42 88 0.9 2.6 0.00 0.12 0.00 94 1001.6
20260507014506 42 89 0.9 1.7 0.00 0.12 0.00 94 1001.5
20260507014006 43 84 0.9 1.7 0.00 0.12 0.00 94 1001.8
20260507013506 43 107 0.9 2.6 0.00 0.12 0.00 94 1001.6
20260507013006 43 112 0.9 2.6 0.00 0.12 0.00 94 1002.0
20260507012505 43 135 0.9 1.7 0.00 0.12 0.00 94 1001.9
20260507012006 43 147 0.0 1.7 0.00 0.12 0.00 94 1002.0
20260507011505 43 114 0.9 2.6 0.00 0.12 0.00 94 1001.9
20260507010506 43 109 0.0 1.7 0.00 0.12 0.00 94 1002.1
20260507010006 43 115 0.9 1.7 0.00 0.12 0.00 93 1002.0
20260507005506 43 148 0.9 1.7 0.00 0.12 0.00 93 1002.1
20260507005006 43 144 0.0 4.3 0.00 0.12 0.00 93 1002.1
20260507004505 43 147 0.9 2.6 0.00 0.12 0.00 93 1002.1
20260507003505 43 172 0.9 2.6 0.00 0.12 0.00 93 1002.4
20260507003005 43 167 0.9 2.6 0.00 0.12 0.00 93 1002.3
20260507002506 43 98 0.0 1.7 0.00 0.12 0.00 93 1002.3
20260507002005 43 131 0.9 5.2 0.00 0.12 0.00 93 1002.4
20260507001505 43 115 0.9 5.2 0.00 0.12 0.00 94 1002.4
20260507001006 43 142 2.6 5.2 0.00 0.12 0.00 94 1002.5
20260507000505 43 173 0.9 4.3 0.00 0.12 0.00 94 1002.6
20260506235505 44 142 0.9 2.6 0.00 0.12 0.00 95 1002.8
20260506235005 44 144 0.9 4.3 0.00 0.12 0.00 95 1002.6
20260506234006 44 137 1.7 4.3 0.00 0.12 0.00 95 1003.1
20260506233506 44 171 0.9 1.7 0.01 0.12 0.00 95 1003.2
20260506233006 44 148 0.9 2.6 0.02 0.12 0.00 95 1002.9
20260506232505 44 128 1.7 4.3 0.04 0.12 0.00 95 1003.0
20260506232006 44 105 0.9 2.6 0.07 0.12 0.00 95 1002.8
20260506231506 44 99 0.9 2.6 0.08 0.12 0.00 95 1002.9
20260506230505 44 126 0.9 2.6 0.10 0.12 0.00 95 1003.0
20260506230005 44 125 0.9 2.6 0.10 0.12 0.00 95 1003.1
20260506225505 44 89 0.9 2.6 0.11 0.12 0.12 95 1003.1
20260506225005 43 136 0.9 2.6 0.11 0.12 0.12 94 1003.3
20260506224505 43 89 0.9 1.7 0.12 0.12 0.12 94 1003.4
20260506224006 43 117 0.9 4.3 0.12 0.12 0.12 93 1003.4
20260506223505 43 134 0.9 5.2 0.11 0.11 0.11 93 1003.3
20260506223005 44 115 0.0 2.6 0.11 0.11 0.11 91 1003.6
20260506221505 45 87 0.9 4.3 0.04 0.04 0.04 90 1003.3
20260506221005 45 90 1.7 4.3 0.03 0.03 0.03 90 1003.4
20260506220005 45 65 0.9 4.3 0.02 0.02 0.02 89 1003.5
20260506215006 45 73 1.7 5.2 0.01 0.01 0.01 87 1003.6
20260506214505 45 123 1.7 5.2 0.00 0.00 0.00 87 1003.6
20260506214005 46 84 2.6 7.0 0.00 0.00 0.00 86 1003.8
20260506213504 46 153 1.7 7.0 0.00 0.00 0.00 83 1003.7
20260506213005 46 86 1.7 6.1 0.00 0.00 0.00 82 1003.6
20260506212505 46 65 1.7 6.1 0.00 0.00 0.00 81 1003.8
20260506212004 46 101 1.7 5.2 0.00 0.00 0.00 80 1003.8
20260506211504 46 98 2.6 7.0 0.00 0.00 0.00 80 1003.8
20260506211006 47 101 1.7 6.1 0.00 0.00 0.00 80 1004.0
20260506210505 47 78 1.7 5.2 0.00 0.00 0.00 79 1003.9
20260506210005 47 91 2.6 5.2 0.00 0.00 0.00 77 1003.9
20260506205505 47 76 1.7 6.1 0.00 0.00 0.00 74 1003.8
20260506205005 47 99 3.5 7.0 0.00 0.00 0.00 72 1004.2
20260506204505 47 177 2.6 7.8 0.00 0.00 0.00 73 1004.1
20260506204005 47 66 2.6 6.1 0.00 0.00 0.00 74 1004.1
20260506203505 47 92 2.6 5.2 0.00 0.00 0.00 75 1004.1
20260506203004 46 123 1.7 6.1 0.00 0.00 0.00 76 1004.3
20260506202505 46 83 1.7 6.1 0.00 0.00 0.00 74 1004.3
20260506202004 46 95 1.7 5.2 0.00 0.00 0.00 74 1004.2
20260506201505 46 88 1.7 5.2 0.00 0.00 0.00 75 1004.4
20260506201005 46 119 1.7 4.3 0.00 0.00 0.00 74 1004.3
20260506200504 46 67 1.7 5.2 0.00 0.00 0.00 73 1004.3
20260506200005 46 112 0.9 4.3 0.00 0.00 0.00 72 1004.5
20260506195004 46 89 0.9 4.3 0.00 0.00 0.00 72 1004.2
20260506194505 46 104 1.7 5.2 0.00 0.00 0.00 72 1004.6
20260506194005 46 74 1.7 2.6 0.00 0.00 0.00 71 1004.8
20260506193504 46 91 1.7 4.3 0.00 0.00 0.00 71 1004.7
20260506193005 46 66 1.7 4.3 0.00 0.00 0.00 70 1004.8
20260506192505 46 90 0.9 2.6 0.00 0.00 0.00 70 1004.8
20260506192005 46 108 1.7 4.3 0.00 0.00 0.00 70 1004.9
20260506191504 46 83 2.6 4.3 0.00 0.00 0.00 69 1005.0
20260506191004 46 69 0.9 5.2 0.00 0.00 0.00 69 1004.9
20260506190504 46 94 1.7 4.3 0.00 0.00 0.00 69 1005.1
20260506190005 46 107 0.9 1.7 0.00 0.00 0.00 69 1005.1
20260506185505 46 139 0.9 2.6 0.00 0.00 0.00 67 1005.2
20260506185004 46 62 0.9 4.3 0.00 0.00 0.00 67 1005.2
20260506184504 46 92 0.9 4.3 0.00 0.00 0.00 67 1005.4
20260506184004 46 88 1.7 4.3 0.00 0.00 0.00 67 1005.4
20260506183505 46 87 1.7 4.3 0.00 0.00 0.00 67 1005.5
20260506182504 46 69 2.6 5.2 0.00 0.00 0.00 66 1005.5
20260506182004 46 74 0.9 2.6 0.00 0.00 0.00 68 1005.6
20260506181004 46 96 2.6 5.2 0.00 0.00 0.00 68 1005.3
20260506180504 46 72 1.7 5.2 0.00 0.00 0.00 69 1005.4
20260506180005 46 67 1.7 5.2 0.00 0.00 0.00 71 1005.3
20260506175504 46 102 1.7 7.0 0.00 0.00 0.00 72 1005.3
20260506174504 46 66 1.7 4.3 0.00 0.00 0.00 72 1005.5
20260506173503 46 85 1.7 6.1 0.00 0.00 0.00 73 1005.6
20260506173004 46 70 1.7 5.2 0.00 0.00 0.00 73 1005.6
20260506172004 47 58 1.7 7.0 0.00 0.00 0.00 73 1005.6
20260506171504 47 71 2.6 7.0 0.00 0.00 0.00 73 1005.7
20260506171004 47 70 2.6 6.1 0.00 0.00 0.00 72 1005.6
20260506170504 47 71 2.6 5.2 0.00 0.00 0.00 72 1005.8
20260506170004 47 98 2.6 7.0 0.00 0.00 0.00 71 1005.7
20260506165504 47 115 2.6 6.1 0.00 0.00 0.00 70 1005.8
20260506165004 47 58 2.6 6.1 0.00 0.00 0.00 70 1005.9
20260506164510 47 81 2.6 7.0 0.00 0.00 0.00 69 1005.9
20260506164010 47 92 2.6 6.1 0.00 0.00 0.00 69 1005.9
20260506163509 47 67 2.6 7.8 0.00 0.00 0.00 67 1006.0
20260506163009 48 89 2.6 6.1 0.00 0.00 0.00 67 1006.0
20260506162509 48 70 2.6 7.0 0.00 0.00 0.00 66 1005.9
20260506162009 47 99 2.6 7.0 0.00 0.00 0.00 66 1006.1
20260506161509 47 81 3.5 7.0 0.00 0.00 0.00 66 1006.2
20260506161009 47 89 2.6 7.8 0.00 0.00 0.00 66 1006.2
20260506160509 48 53 2.6 7.0 0.00 0.00 0.00 66 1006.3
20260506160009 48 102 3.5 7.0 0.00 0.00 0.00 64 1006.3
20260506155509 48 127 2.6 7.0 0.00 0.00 0.00 65 1006.4
20260506154508 48 73 2.6 6.1 0.00 0.00 0.00 63 1006.5
20260506153509 48 98 2.6 7.8 0.00 0.00 0.00 62 1006.4
20260506153009 48 102 4.3 7.8 0.00 0.00 0.00 61 1006.4
20260506152509 48 91 3.5 6.1 0.00 0.00 0.00 60 1006.5
20260506152009 48 31 2.6 7.0 0.00 0.00 0.00 61 1006.6
20260506151509 48 80 3.5 7.0 0.00 0.00 0.00 61 1006.7
20260506151010 48 80 3.5 8.7 0.00 0.00 0.00 61 1006.8
20260506150509 49 87 4.3 8.7 0.00 0.00 0.00 60 1006.7
20260506150009 48 75 3.5 8.7 0.00 0.00 0.00 60 1006.6
20260506145509 48 74 3.5 7.0 0.00 0.00 0.00 60 1006.9
20260506145009 48 83 4.3 8.7 0.00 0.00 0.00 59 1006.7
20260506144509 49 76 3.5 8.7 0.00 0.00 0.00 58 1006.8
20260506143509 48 76 3.5 7.8 0.00 0.00 0.00 58 1007.0
20260506143009 49 138 2.6 7.8 0.00 0.00 0.00 56 1007.0
20260506142509 50 124 2.6 7.0 0.00 0.00 0.00 55 1007.1
20260506142009 50 85 3.5 6.1 0.00 0.00 0.00 54 1007.1
20260506141509 50 130 2.6 7.0 0.00 0.00 0.00 53 1007.2
20260506140509 49 68 4.3 7.8 0.00 0.00 0.00 53 1007.5
20260506135509 49 84 4.3 7.0 0.00 0.00 0.00 55 1007.4
20260506135008 50 88 3.5 7.8 0.00 0.00 0.00 56 1007.3
20260506134508 50 63 3.5 7.8 0.00 0.00 0.00 56 1007.5
20260506134008 50 75 2.6 5.2 0.00 0.00 0.00 55 1007.5
20260506133508 50 70 1.7 8.7 0.00 0.00 0.00 53 1007.3
20260506133009 49 65 3.5 7.0 0.00 0.00 0.00 55 1007.6
20260506132509 49 95 4.3 7.0 0.00 0.00 0.00 56 1007.8
20260506132009 49 61 2.6 7.0 0.00 0.00 0.00 55 1007.7
20260506131508 48 101 4.3 7.0 0.00 0.00 0.00 57 1007.5
20260506131008 48 76 4.3 7.0 0.00 0.00 0.00 58 1007.7
20260506130508 49 105 4.3 7.0 0.00 0.00 0.00 57 1007.8
20260506130009 49 89 2.6 6.1 0.00 0.00 0.00 56 1007.9
20260506125509 49 68 3.5 6.1 0.00 0.00 0.00 56 1007.7
20260506124508 49 113 2.6 7.0 0.00 0.00 0.00 59 1007.7
20260506124009 49 134 2.6 7.8 0.00 0.00 0.00 55 1007.9
20260506123508 49 75 2.6 7.0 0.00 0.00 0.00 58 1007.9
20260506123008 48 127 3.5 7.8 0.00 0.00 0.00 61 1008.1
20260506122508 48 104 4.3 8.7 0.00 0.00 0.00 60 1008.0
20260506122008 48 69 2.6 7.8 0.00 0.00 0.00 60 1008.1
20260506121509 48 92 2.6 7.0 0.00 0.00 0.00 61 1008.0
20260506121009 48 139 4.3 10.4 0.00 0.00 0.00 62 1008.2
20260506120508 48 105 3.5 7.8 0.00 0.00 0.00 60 1008.5
20260506115009 48 137 2.6 7.8 0.00 0.00 0.00 60 1008.4
20260506114508 48 76 2.6 6.1 0.00 0.00 0.00 62 1008.3
20260506114009 48 80 2.6 7.8 0.00 0.00 0.00 63 1008.4
20260506113508 49 76 4.3 7.8 0.00 0.00 0.00 62 1008.5
20260506113008 48 93 2.6 6.1 0.00 0.00 0.00 63 1008.5
20260506112009 47 126 3.5 7.8 0.00 0.00 0.00 66 1008.4
20260506111508 46 64 2.6 8.7 0.00 0.00 0.00 67 1008.4
20260506111008 47 85 2.6 8.7 0.00 0.00 0.00 65 1008.6
20260506110508 48 134 2.6 7.0 0.00 0.00 0.00 65 1008.6
20260506105508 48 51 2.6 6.1 0.00 0.00 0.00 66 1008.6
20260506105007 48 81 2.6 6.1 0.00 0.00 0.00 66 1008.7
20260506104008 48 67 2.6 6.1 0.00 0.00 0.00 66 1008.8
20260506103508 48 51 2.6 6.1 0.00 0.00 0.00 67 1008.8
20260506103008 48 78 1.7 4.3 0.00 0.00 0.00 65 1008.8
20260506102508 48 64 1.7 6.1 0.00 0.00 0.00 67 1009.0
20260506102008 48 93 1.7 6.1 0.00 0.00 0.00 65 1008.8
20260506101507 46 97 2.6 5.2 0.00 0.00 0.00 68 1008.8
20260506100508 45 113 1.7 4.3 0.00 0.00 0.00 69 1008.7
20260506100008 45 72 2.6 5.2 0.00 0.00 0.00 70 1008.9
20260506095507 45 99 2.6 6.1 0.00 0.00 0.00 71 1008.8
20260506095008 46 96 2.6 4.3 0.00 0.00 0.00 70 1009.1
20260506094508 46 110 1.7 5.2 0.00 0.00 0.00 69 1009.0
20260506094008 47 133 1.7 5.2 0.00 0.00 0.00 66 1009.0
20260506093008 48 71 0.0 0.9 0.00 0.00 0.00 57 1009.0
20260506092507 47 101 0.9 1.7 0.00 0.00 0.00 59 1009.2
20260506092007 47 46 0.0 0.9 0.00 0.00 0.00 61 1009.0
20260506091507 46 332 0.9 1.7 0.00 0.00 0.00 61 1009.1
20260506091007 47 76 0.9 1.7 0.00 0.00 0.00 65 1009.0
20260506090007 47 93 0.9 1.7 0.00 0.00 0.00 64 1009.1
20260506085507 47 61 0.0 0.9 0.00 0.00 0.00 68 1009.3
20260506084508 45 121 0.9 1.7 0.00 0.00 0.00 69 1009.6
20260506084008 46 147 0.0 0.9 0.00 0.00 0.00 71 1009.5
20260506083507 46 116 0.0 1.7 0.00 0.00 0.00 71 1009.3
20260506083008 46 56 0.0 0.9 0.00 0.00 0.00 72 1009.5
20260506082508 45 297 0.0 0.9 0.00 0.00 0.00 73 1009.5
20260506081508 45 325 0.0 1.7 0.00 0.00 0.00 72 1009.4
20260506081007 45 75 0.0 1.7 0.00 0.00 0.00 73 1009.3
20260506080508 46 138 0.0 0.9 0.00 0.00 0.00 72 1009.5
20260506073507 46 98 0.0 1.7 0.00 0.00 0.00 76 1009.5
20260506072507 45 140 0.0 0.9 0.00 0.00 0.00 77 1009.6
20260506072007 44 50 0.0 1.7 0.00 0.00 0.00 79 1009.6
20260506070507 43 231 0.0 0.9 0.00 0.00 0.00 80 1009.6
20260506062507 41 156 0.9 1.7 0.00 0.00 0.00 84 1009.6
20260506062007 40 157 0.0 0.9 0.00 0.00 0.00 84 1009.6
20260506061507 40 124 0.0 1.7 0.00 0.00 0.00 84 1009.7
20260506061007 40 148 0.0 0.9 0.00 0.00 0.00 85 1009.6